Overview Statistics Trail Chart Weather Telemetry Raw packets
 

This is the latest recevied weather packets stored in our database for station/object WX6HNX-14. If no packets are shown the sender has not sent any weather packets the latest 10 day(s).

<< 25 26 27 28 29 30 31 >>
Time Temp. Humidity Pressure Rain* Wind** Luminosity Snow
1777397561 17.22° C 58% 1020.3 hPa 0 mm - - -
1777397152 16.67° C 58% 1020.3 hPa 0 mm - - -
1777396852 16.67° C 59% 1020.3 hPa 0 mm - - -
1777396552 16.67° C 60% 1020.4 hPa 0 mm - - -
1777396253 16.11° C 60% 1020.4 hPa 0 mm - - -
1777395952 16.11° C 60% 1020.4 hPa 0 mm - - -
1777395652 16.11° C 59% 1020.4 hPa 0 mm - - -
1777395352 16.11° C 61% 1020.4 hPa 0 mm - - -
1777394862 16.11° C 61% 1020.6 hPa 0 mm - - -
1777394548 15.56° C 61% 1020.6 hPa 0 mm - - -
1777394248 15.56° C 63% 1020.6 hPa 0 mm - - -
1777393947 15.56° C 63% 1020.7 hPa 0 mm - - -
1777393648 15.56° C 63% 1020.6 hPa 0 mm - - -
1777393347 15.56° C 63% 1020.8 hPa 0 mm - - -
1777393047 15.56° C 63% 1020.8 hPa 0 mm - - -
1777392748 15.56° C 64% 1020.8 hPa 0 mm - - -
1777392448 15° C 64% 1020.9 hPa 0 mm - - -
1777392147 15° C 64% 1020.9 hPa 0 mm - - -
1777391847 15° C 65% 1020.9 hPa 0 mm - - -
1777391547 15° C 66% 1020.9 hPa 0 mm - - -
1777391248 15° C 66% 1020.9 hPa 0 mm - - -
1777390948 15° C 65% 1020.9 hPa 0 mm - - -
1777390648 14.44° C 65% 1020.8 hPa 0 mm - - -
1777390348 15° C 64% 1020.9 hPa 0 mm - - -
1777390047 15° C 65% 1020.7 hPa 0 mm - - -

* Rain latest hour (hover to see other rain measurements)
** Current wind speed in m/s (hover to see current wind gust speed)